Address 0xa658e94bc3de686aaa5096414013ceec49b5900b 12

Txn Hash Method
Block
From
To
Value [Txn Fee]
0x96c6ee7b295a80e9917b7550c4992c2cb9e3c16b14972678f1ace910765b1a7bWithdraw All201512832021-10-14 2:25:315 days 46 mins ago0xa658e94bc3de686aaa5096414013ceec49b5900bOUT 0xed2989b67438083c9bc3b06d98194f82f4c1432d0 MATIC0.000141882
0xac373d8ffb5b688d87f952ffcbc4ec3dccb5ecf9e5c20a320fa40bbec67d9d2cWithdraw All201512692021-10-14 2:25:035 days 46 mins ago0xa658e94bc3de686aaa5096414013ceec49b5900bOUT 0x5da92e52854f12ec7d8e32fba7a573473d648d180 MATIC0.001234458
0x5896b0d5226c9716e21e3676721c53a80b3c11a9aec07eb586efb2cdbf02eda00xb617b1aa201512442021-10-14 2:24:135 days 47 mins ago0xa658e94bc3de686aaa5096414013ceec49b5900bOUT 0xed2989b67438083c9bc3b06d98194f82f4c1432d0 MATIC0.000102768
0xab64c937fb7f9b2d75b26e392177875802c9468c2e026041d4eeba4a4e5626b0Withdraw All201512142021-10-14 2:23:095 days 48 mins ago0xa658e94bc3de686aaa5096414013ceec49b5900bOUT 0xed2989b67438083c9bc3b06d98194f82f4c1432d0 MATIC0.000501558
0x373bd2aff4c2a0380e570b188ff65f7efe3797066c25ccd02dc5858979aa042cWithdraw All201512102021-10-14 2:23:015 days 48 mins ago0xa658e94bc3de686aaa5096414013ceec49b5900bOUT 0x5da92e52854f12ec7d8e32fba7a573473d648d180 MATIC0.001197858
0x8625e4078f5eb773418f414f8d048d4e55b3c9bf9bd2914a35585adb335785be0x612cd04b201511882021-10-14 2:22:175 days 49 mins ago0xa658e94bc3de686aaa5096414013ceec49b5900bOUT 0x725e9f1044f1cdac5b193e345c7f2c6290a18cdc0 MATIC0.002615772
0xa1cc128b690d8b0ab29ed0cff669e885165d167dbce71b85a75e78ac6fc51853Approve201511762021-10-14 2:21:535 days 49 mins ago0xa658e94bc3de686aaa5096414013ceec49b5900bOUT 0xa3bcff6aa08ff0ca764e65a9579748c7e676e5660 MATIC0.000202017
0x6c5d53c95451fd4df8f61813096022ebc980bdfbc54d007ad3914a57e24e2f4bWithdraw All201510772021-10-14 2:18:275 days 53 mins ago0xa658e94bc3de686aaa5096414013ceec49b5900bOUT 0xed2989b67438083c9bc3b06d98194f82f4c1432d0 MATIC0.000141882
0xd9bf948c5c09b955a4287635bb1115c87132d13e40a8b8fcd8a5874b0aa9d46dWithdraw All201510732021-10-14 2:18:195 days 53 mins ago0xa658e94bc3de686aaa5096414013ceec49b5900bOUT 0x5da92e52854f12ec7d8e32fba7a573473d648d180 MATIC0.001234458
0x4acda77c7528a704460cb376391c0e957c4a95eabf3ed2545c6e70ba8c6ca0b9Withdraw All201509932021-10-14 2:15:355 days 56 mins ago0xa658e94bc3de686aaa5096414013ceec49b5900bOUT 0xed2989b67438083c9bc3b06d98194f82f4c1432d0 MATIC0.000900504
0x19307d1d4b803bdffb4d67ea6fb94fc677ce0ef87219cc6d019785cc7d54c17eWithdraw All201509872021-10-14 2:15:235 days 56 mins ago0xa658e94bc3de686aaa5096414013ceec49b5900bOUT 0x5da92e52854f12ec7d8e32fba7a573473d648d180 MATIC0.001038609
0x30c6e7e4fc1bab55aef72224622825b0e140fa6a8808cd278000fa6107984cd40x05635bc4201509662021-10-14 2:14:375 days 56 mins ago0xa658e94bc3de686aaa5096414013ceec49b5900bOUT 0x725e9f1044f1cdac5b193e345c7f2c6290a18cdc0 MATIC0.001518177
0x6134893054de3d9a6f31b8382d00dc610ddf658d24cb811dd0fc530e81afa8dfApprove201509502021-10-14 2:14:055 days 57 mins ago0xa658e94bc3de686aaa5096414013ceec49b5900bOUT 0xa3bcff6aa08ff0ca764e65a9579748c7e676e5660 MATIC0.000201909
0x3224e33e8ea76ca54e51fab5e5e6dab127244a0cfbf50d4de9ba95c3eaacb2c10x05635bc4201509052021-10-14 2:12:315 days 59 mins ago0xa658e94bc3de686aaa5096414013ceec49b5900bOUT 0x725e9f1044f1cdac5b193e345c7f2c6290a18cdc0 MATIC0.00172722
0xddf77cecd88dc3b487cf2aa523964e41b6e6560af3ec6594a074fd044973c920Approve201508922021-10-14 2:12:055 days 59 mins ago0xa658e94bc3de686aaa5096414013ceec49b5900bOUT 0xaa3ae75e8118fc1b6debc99bc52db28f7403a54c0 MATIC0.000150747
0xf4112848ae02affd89ab2050b8643264b4db7af8ae1ec82de53b75c66ea4d1010x1325188f201508482021-10-14 2:10:375 days 1 hr ago0xa658e94bc3de686aaa5096414013ceec49b5900bOUT 0x725e9f1044f1cdac5b193e345c7f2c6290a18cdc0 MATIC0.002777586
0x1325c23af44ea9e5fdee03330018d7f0b56f9172887b936142b7d700ca279de00x768ab0fc201507982021-10-14 2:08:535 days 1 hr ago0xa658e94bc3de686aaa5096414013ceec49b5900bOUT 0x725e9f1044f1cdac5b193e345c7f2c6290a18cdc0.002 MATIC0.001302075
0x381776264a68c05a7cba88545c0536f082948ed1b0ddca320995f7fb128e91980x1325188f201507382021-10-14 2:06:495 days 1 hr ago0xa658e94bc3de686aaa5096414013ceec49b5900bOUT 0x725e9f1044f1cdac5b193e345c7f2c6290a18cdc0 MATIC0.003781422
0x6006bc496d45f4755334099d6650d9ec7d006ffa6d54f7dd0439fabb9e43f3ed0x05635bc4201506302021-10-14 2:03:055 days 1 hr ago0xa658e94bc3de686aaa5096414013ceec49b5900bOUT 0x725e9f1044f1cdac5b193e345c7f2c6290a18cdc0 MATIC0.001740762
0x383470553d69bbadad02750f199a456f02323e9aa9365265a5766aeb11c82a92Approve201506042021-10-14 2:02:135 days 1 hr ago0xa658e94bc3de686aaa5096414013ceec49b5900bOUT 0xc350457316999eca45698f124d07eb8efda93b9d0 MATIC0.000201945
0x7cdf754ad4bd5994d6abcb16713968b7d6fc5e20de901a9c6c92011f1d422d4bTrade201505282021-10-14 1:59:375 days 1 hr ago0xa658e94bc3de686aaa5096414013ceec49b5900bOUT 0x725e9f1044f1cdac5b193e345c7f2c6290a18cdc0 MATIC0.001943619
0xce65ea0cbd2ba8f195517ea8b9f74c982db5ffc7bed06223d76499fcb72923e6Trade201504812021-10-14 1:57:595 days 1 hr ago0xa658e94bc3de686aaa5096414013ceec49b5900bOUT 0x725e9f1044f1cdac5b193e345c7f2c6290a18cdc0 MATIC0.001674816
0xcad93bc904756c9cb343f07aae50c9c018700fbaca99e4d158b851fcc592f28dTrade201501072021-10-14 1:45:075 days 1 hr ago0xa658e94bc3de686aaa5096414013ceec49b5900bOUT 0x725e9f1044f1cdac5b193e345c7f2c6290a18cdc0 MATIC0.001966257
0x22a4b70ebfce267657ee16263b7486a0018612176e8fc4c49136d671bb2f490dTrade201500372021-10-14 1:42:435 days 1 hr ago0xa658e94bc3de686aaa5096414013ceec49b5900bOUT 0x725e9f1044f1cdac5b193e345c7f2c6290a18cdc0 MATIC0.001823664
0x8934d8a053c3cf5dff9996f4919e5a5b8033e35a90b53b925f7ae4d6ed894f720x05635bc4200939652021-10-12 17:26:436 days 9 hrs ago0xa658e94bc3de686aaa5096414013ceec49b5900bOUT 0x725e9f1044f1cdac5b193e345c7f2c6290a18cdc0 MATIC0.001763265
[ Download CSV Export 
Latest 1 internal transaction
Parent Txn Hash Block From To Value
0xf4112848ae02affd89ab2050b8643264b4db7af8ae1ec82de53b75c66ea4d101201508482021-10-14 2:10:375 days 1 hr ago 0x725e9f1044f1cdac5b193e345c7f2c6290a18cdc0xa658e94bc3de686aaa5096414013ceec49b5900b0.302 MATIC
[ Download CSV Export 
Loading

Contract Name:
0 MATIC

Compiler Version
0

Optimization Enabled:
0 MATIC

Other Settings:
-NA-
Block Transaction Gas Used Reward
Age Block Fee Address BC Fee Address Voting Power Jailed Incoming
Block Uncle Number Difficulty Gas Used Reward
Loading